Miscellaneous Local Product
Issued by NWS North Platte, NE

Home | Current Version | Previous Version | Text Only | Print | Product List | Glossary On
Versions: 1 2 3 4 5 6 7 8 9 10 11 12 13 14 15 16 17 18 19 20 21 22 23 24 25 26 27 28 29 30 31 32 33 34 35 36 37 38 39 40 41 42 43 44 45 46 47 48 49 50
000
AXUS43 KLBF 020910
MISLBF


WESTERN AND NORTH CENTRAL NEBRASKA HOURLY WEATHER ROUNDUP
NATIONAL WEATHER SERVICE NORTH PLATTE NE
400 AM CDT SAT MAY 02 2015

***STATIONS NOT REPORTING VARIABLES SUCH AS SKY/WEATHER OR
PRESSURE ARE PROVIDED BY THE NEBRASKA DEPARTMENT OF
ROADS...RAWS...AND APRS NETWORKS...AND ARE NOT UNDER
NATIONAL WEATHER SERVICE QUALITY CONTROL***

...OBSERVATIONS IN AND NEAR THE EASTERN PANHANDLE OF NEBRASKA...

CITY           SKY/WX    TMP DP  RH WIND       PRES   REMARKS
PINE RIDGE     CLEAR     53  44  71 SW7       29.89F
CHADRON        CLEAR     54  46  74 S5        29.89F
ALLIANCE       CLEAR     44  41  89 S5        29.93F
SIDNEY         CLEAR     45  44  97 SW7       29.97F
WHITECLAY        N/A     55  44  68 S13         N/A
CRESCENT LAKE    N/A     51  46  82 S6          N/A
BIG SPRINGS      N/A     55  49  82 CALM        N/A
$$

...OBSERVATIONS IN NORTH CENTRAL NEBRASKA...

CITY           SKY/WX    TMP DP  RH WIND       PRES   REMARKS
VALENTINE      PTCLDY    52  42  69 CALM      29.91F
THEDFORD       PTCLDY    56  51  83 S7        29.93F
AINSWORTH      TSTM      57  52  82 SE10      29.92F
O`NEILL        PTCLDY    52  47  83 S6        29.92F
ORD            CLOUDY    51  47  86 NW5       29.90F
BROKEN BOW     MOCLDY    61  49  64 CALM      29.92F
BROWNLEE         N/A     60  50  68 S7          N/A
VALENTINE NWR    N/A     52  47  84 S6          N/A
SPRINGVIEW       N/A     48  45  90 CALM        N/A
HALSEY           N/A     57  48  73 S3G12       N/A
BREWSTER         N/A     54  51  90 S8          N/A
ROSE             N/A     60  54  83 E6          N/A
NEWPORT          N/A     55  49  81 S3          N/A
SARGENT          N/A     59  50  71 CALM        N/A
COMSTOCK         N/A     58  51  78 N3          N/A
EWING            N/A     52  47  83 CALM        N/A
$$

...OBSERVATIONS IN SOUTHWEST NEBRASKA AND FAR NORTHEAST COLORADO...

CITY           SKY/WX    TMP DP  RH WIND       PRES   REMARKS
WRAY           FAIR      51  48  89 SW7       29.97F
IMPERIAL       CLEAR     53  47  79 SW9       29.95F
OGALLALA       CLEAR     46  43  90 CALM      29.96F
NORTH PLATTE   PTCLDY    53  50  89 CALM      29.94F
MCCOOK         MOCLDY    58  49  72 N5        29.94S
LEXINGTON      PTCLDY    55  49  79 W8        29.91F
PAXTON           N/A     49  45  87 CALM        N/A
SUTHERLAND       N/A     47  45  91 W5          N/A
GOTHENBURG       N/A     59  49  70 W3          N/A
CALLAWAY         N/A     60  54  80 W6          N/A
$$

...NORTH PLATTE AREA...

CITY           SKY/WX    TMP DP  RH WIND       PRES   REMARKS
AIRPORT        PTCLDY    53  50  89 CALM      29.94F
DOWNTOWN         N/A     55  52  91 CALM        N/A
$$

...SOME WEATHER OBSERVATIONS FROM AROUND THE REGION...

CITY           SKY/WX    TMP DP  RH WIND       PRES   REMARKS
DENVER         MOCLDY    53  43  68 SW16      30.01F
LARAMIE        CLEAR     43  33  68 SW12      30.07S
CHEYENNE       PTCLDY    43  39  86 SW9       30.02F
SCOTTSBLUFF    CLEAR     49  45  86 E8        29.94F
RAPID CITY     CLEAR     50  38  63 S7        29.85F
PIERRE         PTCLDY    52  39  61 SE6       29.84F
WINNER         FAIR      61  44  53 S16       29.88F
SIOUX FALLS    CLEAR     52  45  77 S6        29.93F
OMAHA          MOCLDY    58  44  60 S10       29.97F
GRAND ISLAND   CLOUDY    60  53  77 S8        29.93F
KANSAS CITY    CLOUDY    57  44  62 S10       30.04F
WICHITA        CLOUDY    59  45  59 S6        30.04S
HAYS           CLOUDY    61  46  59 S12       29.98F
LIBERAL        CLOUDY    61  46  59 SE10      30.04S
GOODLAND       MOCLDY    53  48  83 SW7       29.98F
$$



USA.gov is the U.S. government's official web portal to all federal, state and local government web resources and services.